Regional Weather Roundup
Issued by NWS Columbia, SC

Home | Current Version | Previous Version | Text Only | Print | Product List | Glossary On
Versions: 1 2 3 4 5 6 7 8 9 10 11 12 13 14 15 16 17 18 19 20 21 22 23 24 25 26 27 28 29 30 31 32 33 34 35 36 37 38 39 40 41 42 43 44 45 46 47 48 49 50
000
ASUS42 KCAE 221910
RWRCAE
REGIONAL WEATHER ROUNDUP
NATIONAL WEATHER SERVICE COLUMBIA SC
300 PM EDT MON MAY 22 2017

NOTE: "FAIR" INDICATES FEW OR NO CLOUDS BELOW 12,000 FEET WITH NO
SIGNIFICANT WEATHER AND/OR OBSTRUCTIONS TO VISIBILITY.

NOT ALL STATIONS ARE QUALITY CONTROLLED BY THE NATIONAL
WEATHER SERVICE. USE DATA WITH CAUTION...ESPECIALLY
DEWPOINT OBSERVATIONS.

SCZ001>056-GAZ040-063>065-077-222000-
...UPSTATE SOUTH CAROLINA...

CITY           SKY/WX    TMP DP  RH WIND       PRES   REMARKS
ANDERSON       CLOUDY    80  65  59 SW6       30.00S
SPARTANBURG    PTSUNNY   79  64  61 CALM      30.00S
CLEMSON        CLOUDY    80  67  64 E3        30.02R THUNDER
GREENVILLE     CLOUDY    80  65  59 W3        30.01F
GREENWOOD      CLOUDY    78  68  71 W7        30.00S
GREER          PTSUNNY   79  66  64 SW5       30.00F
ROCK HILL      MOSUNNY   79  67  66 VRB3      30.00F
CHESTER        MOCLDY    79  64  61 NW3       29.99F HAZE
LAURENS        CLOUDY    81  68  65 CALM      29.99S


...CENTRAL SOUTH CAROLINA...

CITY           SKY/WX    TMP DP  RH WIND       PRES   REMARKS
COLUMBIA APT   CLOUDY    75  68  78 N3        29.97F
COLUMBIA OWENS TSTM      70  68  93 VRB5      29.98F
MCENTIRE ANGB  CLOUDY    76  63  64 NW16G25   29.99R
ORANGEBURG     CLOUDY    84  69  60 S7        29.97F
SUMTER SHAW    CLOUDY    85  68  57 S7        29.94F
NEWBERRY       CLOUDY    73  63  68 SE8G16    30.01S
AIKEN          FAIR      86  64  48 S12G21    30.00F
BARNWELL       MOCLDY    79  73  83 CALM      29.98S THUNDER
MANNING        FAIR      84  72  65 S7        29.97F
CAMDEN         FAIR      82  70  65 CALM      29.98F
LANCASTER      MOCLDY    81  70  69 SE3       29.99F
WINNSBORO      TSTM      72  66  83 SE14      30.00R VSB 3/4


...EASTERN AND COASTAL SOUTH CAROLINA...

CITY           SKY/WX    TMP DP  RH WIND       PRES   REMARKS
MYRTLE BEACH   PTSUNNY   81  72  74 S14       30.00F
N MYRTLE BCH   CLOUDY    81  71  71 S17G26    29.98F
CONWAY         MOCLDY    81  72  74 SE6       29.98F THUNDER HAZE
MARION         FAIR      84  68  58 CALM      29.96F
HARTSVILLE     FAIR      81  68  65 W3        29.97F
FLORENCE       CLOUDY    85  70  60 SW8       29.97F
DARLINGTON     CLOUDY    85  70  60 VRB6      29.97F
CHARLESTON APT PTSUNNY   85  71  63 S8        29.98F
MOUNT PLEASANT FAIR      82  73  74 S9        29.99F
WALTERBORO     CLOUDY    84  70  61 S12       29.98F
BEAUFORT       TSTM      77  76  96 SW6       29.99F FOG


...EASTERN GEORGIA...

CITY           SKY/WX    TMP DP  RH WIND       PRES   REMARKS
AUGUSTA BUSH F PTSUNNY   87  68  52 S15       29.94F
AUGUSTA DANIEL PTSUNNY   89  63  41 SW13G21   29.97F
THOMSON        CLOUDY    76  66  70 E9        30.05R THUNDER
WASHINGTON     TSTM      72  72 100 N3        30.01F
CLAXTON        FAIR      79  78  96 CALM      29.97F
SYLVANIA       CLOUDY    73  69  89 CALM      29.99F
STATESBORO     CLOUDY    81  77  88 CALM      29.97F
SAVANNAH       CLOUDY    80  70  71 NE8       29.97F


...SOUTHERN NORTH CAROLINA...

CITY           SKY/WX    TMP DP  RH WIND       PRES   REMARKS
CHARLOTTE      CLOUDY    79  66  64 S5        29.99F
MONROE         PTSUNNY   80  66  62 CALM      29.98F
WADESBORO      MOCLDY    83  67  59 W5        29.98F
ROCKINGHAM     MOCLDY    82  70  67 CALM      29.98F
RUTHERFORDTON  LGT RAIN  75  71  85 CALM      30.01F
ASHEVILLE      LGT RAIN  71  62  73 NW7       30.06F

$$



USA.gov is the U.S. government's official web portal to all federal, state and local government web resources and services.